AirNav   ATP
 
 1304 users online  

04I Columbus Southwest Airport
Columbus, Ohio, USA

GOING TO COLUMBUS?


FAA INFORMATION EFFECTIVE 19 JULY 2018

Location

FAA Identifier: 04I
Lat/Long: 39-54-40.2240N / 083-11-19.6850W
39-54.670400N / 083-11.328083W
39.9111733 / -83.1888014
(estimated)
Elevation: 920 ft. / 280.4 m (surveyed)
Variation: 05W (1985)
From city: 11 miles SW of COLUMBUS, OH
Time zone: UTC -4 (UTC -5 during Standard Time)
Zip code: 43119

Airport Operations

Airport use: Open to the public
Activation date: 05/1948
Control tower: no
ARTCC: INDIANAPOLIS CENTER
FSS: DAYTON FLIGHT SERVICE STATION
NOTAMs facility: DAY (NOTAM-D service available)
Attendance: 0900-1700
Wind indicator: yes
Segmented circle: no
Lights: FOR LIRL RY 06/24 CALL AMGR.

Airport Communications

CTAF: 122.9
WX AWOS-3 at TZR (2.5 nm E): 135.925 (614-878-1722)
WX ASOS at OSU (11 nm NE): PHONE 614-451-2465
WX AWOS-3PT at UYF (13 nm W): 120.85 (740-852-2844)
WX AWOS-3 at LCK (13 nm SE): 132.750 (614-492-2441)
WX ASOS at CMH (15 nm E): 124.6 (614-338-4083)

Nearby radio navigation aids

VOR radial/distance  VOR name  Freq  Var
XUBr342/(25.0)YELLOW BUD VOR112.5005W
SGHr086/30.5SPRINGFIELD VOR/DME113.2004W
APEr248/31.1APPLETON VORTAC116.7006W

 
NDB name  Hdg/Dist  Freq  Var  ID
BOUTN013/5.623005WBU -... ..-
FULER183/9.851505WOS --- ...
COBBS329/12.725307WDD -.. -..
COURT HOUSE033/20.841406WCSS -.-. ... ...
CLARK COUNTY089/27.334104WCCJ -.-. -.-. .---
NEWARK264/34.152406WHEH .... . ....

Airport Services

Parking: hangars and tiedowns

Runway Information

Runway 6/24

Dimensions: 2382 x 120 ft. / 726 x 37 m
Surface: turf, in good condition
UNDULATING SFC; RY SOFT WHEN WET; CHECK NOTAMS OR CALL AMGR AT (614) 878-4080.
Runway edge lights: low intensity
Operational restrictions: HAS SOFT SPOTS AFTR RAIN.
RUNWAY 6  RUNWAY 24
Latitude: 39-54.549167N39-54.788000N
Longitude: 083-11.570000W083-11.083000W
Elevation: 920.0 ft.920.0 ft.
Gradient: 0.2%0.2%
Traffic pattern: leftleft
Obstructions: 34 ft. trees, 65 ft. right of centerline50 ft. tree, 433 ft. from runway, 60 ft. left of centerline, 8:1 slope to clear

Airport Ownership and Management from official FAA records

Ownership: Privately-owned
Owner: ED BOWERS
1751 ALTON ROAD
GALLOWAY, OH 43119
Phone 614-878-4080
Manager: ED BOWERS
1751 ALTON ROAD
GALLOWAY, OH 43119
Phone 614-878-4080

Airport Operational Statistics

Aircraft based on the field: 12
Single engine airplanes: 12
    
Aircraft operations: avg 70/week *
50% transient general aviation
50% local general aviation
* for 12-month period ending 27 August 2016

Additional Remarks

A23 HELICOPTERS, ACFT TOWING BANNERS & ULTRALIGHTS USE RIGHT TRAFFIC.
BIRD HAZARD DUE TO NEW PONDS LOCATED NW OF ARPT.
BIRD ACTIVITY INVOF AIRPORT.

Instrument Procedures

There are no published instrument procedures at 04I.

Some nearby airports with instrument procedures:

KTZR - Bolton Field Airport (2 nm E)
KOSU - Ohio State University Airport (11 nm NE)
KUYF - Madison County Airport (13 nm W)
KLCK - Rickenbacker International Airport (13 nm SE)
KCMH - John Glenn Columbus International Airport (15 nm E)
 
Loc | Ops | Rwys | IFR | FBO | Links
Com | Nav | Svcs | Stats | Notes

City of Findlay
 
Area around 04I (Columbus Southwest Airport)
 
Road maps at: MapQuest Bing Google
 
Aerial photo
WARNING: Photo may not be current or correct
Aerial photo of 04I (Columbus Southwest Airport)
Photo taken 16-Sep-2014
looking west.

Do you have a better or more recent aerial photo of Columbus Southwest Airport that you would like to share? If so, please send us your photo.

 
Sectional chart

 
Airport distance calculator
Flying to Columbus Southwest Airport? Find the distance to fly.

From to 04I

Sunrise and sunset
Times for 20-Jul-2018
 Local
(UTC-4)
 Zulu
(UTC)
Morning civil twilight05:5009:50
Sunrise06:2210:22
Sunset20:5600:56
Evening civil twilight21:2801:28

Current date and time
Zulu (UTC)  20-Jul-2018 13:34:09
Local (UTC-4)  20-Jul-2018 09:34:09
 
METAR
KTZR 
3nm SE 
201250Z 21005G18KT 10SM BKN024 BKN070 OVC120 23/19 A2995
KOSU 
11nm NE 
201323Z 19011KT 10SM VCTS FEW025 SCT065 BKN095 25/19 A2994 RMK AO2 LTG DSNT S-NW TS SW MOV E T02500194
KUYF 
13nm W 
201315Z AUTO 19003KT 3SM RA SCT060 SCT075 OVC110 20/18 A2995 RMK AO2 LTG DSNT S
KLCK 
14nm SE 
201315Z AUTO 19010G14KT 10SM BKN025 BKN031 OVC060 24/18 A2995 RMK AO2 LTG DSNT SW T02370183
KCMH 
15nm E 
201320Z 20008KT 10SM BKN026 BKN070 25/18 A2994 RMK AO2 LTG DSNT S-W T02500183
TAF
KLCK 
14nm SE 
201120Z 2012/2112 15006KT P6SM FEW050 SCT250 FM201300 16010KT P6SM -SHRA VCTS OVC050CB TEMPO 2013/2015 4SM -TSRA OVC035CB FM201600 17012G20KT P6SM VCSH BKN040 FM202200 16012G18KT P6SM -SHRA VCTS OVC040CB FM210400 16010KT P6SM -SHRA FEW025 OVC040 FM210900 16008KT P6SM VCSH BKN025
KCMH 
15nm E 
201222Z 2012/2112 15006KT P6SM FEW050 SCT250 FM201300 16010KT P6SM -SHRA VCTS OVC050CB TEMPO 2013/2015 2SM -TSRA OVC035CB FM201600 17012G20KT P6SM VCSH BKN040 FM202200 16012G18KT P6SM -SHRA VCTS OVC040CB FM210400 16010KT P6SM -SHRA FEW025 OVC040 FM210900 16008KT P6SM VCSH BKN025
NOTAMs
Click for the latest NOTAMs
NOTAMs are issued by the DoD/FAA and will open in a separate window not controlled by AirNav.

 

 
 

Would you like to see your business listed on this page?

 If your business provides an interesting product or service to pilots, flight crews, aircraft, or users of the Columbus Southwest Airport, you should consider listing it here.  To start the listing process, click on the button below
 
Add a business
 

Other Pages about Columbus Southwest Airport

Update a link
 
Copyright © AirNav, LLC. All rights reserved. Privacy Policy  Contact